Vorticity
4 5 5 7 8 8 9 10 9 10 12 11 10 10 9 11 16 21 15 9 22 18 12 15 14 14 11 8 10 11 -5 6 0 12 -18 13 8 9 5 9 4 3 0 9 16
5 6 9 8 8 9 9 9 10 10 11 12 15 15 14 14 17 19 30 17 4 15 14 27 9 24 13 8 12 10 4 1 3 11 29 12 -6 10 10 7 8 -0 14 4 12
7 9 9 6 9 10 11 12 12 13 13 15 17 18 20 21 21 27 16 16 -9 18 22 16 32 4 30 -5 5 1 1 1 1 15 2 7 13 9 -6 16 11 9 2 17 5
8 8 8 9 10 10 12 12 10 11 13 12 18 22 19 18 20 4 14 16 13 6 9 11 16 3 -9 23 -4 -23 37 -19 46 -23 17 19 15 15 3 3 28 13 -7 14 15
10 10 11 8 10 10 10 10 7 12 15 16 8 18 6 27 5 10 7 9 10 10 20 0 21 7 22 -17 32 3 -13 26 -3 -28 -3 20 16 28 6 14 6 3 14 4 4
9 8 11 10 9 9 9 6 8 10 19 7 14 6 2 9 16 4 7 8 10 12 17 17 15 20 -10 44 -43 36 10 -4 -37 50 31 -0 -10 -17 18 8 18 8 4 8 -1
9 8 13 11 8 8 9 7 7 21 11 -4 13 11 36 9 -13 -12 9 9 1 10 14 7 9 23 -31 42 56 -12 -6 46 2 -21 -14 3 -0 14 17 1 16 10 14 14 2
7 11 13 10 10 9 8 7 10 31 -7 9 11 40 19 17 11 25 24 31 25 13 10 15 9 13 36 -3 -36 62 -20 22 40 4 -6 -23 21 -8 -6 -6 -8 18 4 10 26
6 13 10 11 11 8 9 11 19 15 -9 10 7 53 11 16 8 6 7 17 5 17 22 12 5 12 12 19 19 42 26 -7 1 33 18 25 -6 42 21 21 5 -1 15 11 12
5 13 9 9 10 10 11 8 23 9 -12 20 -2 54 10 4 25 6 6 13 18 18 17 18 10 6 14 16 4 -4 11 15 35 -34 31 4 9 -29 -4 4 38 3 4 8 13
4 11 10 8 11 12 13 3 33 14 -8 10 3 18 17 17 -7 9 16 41 42 27 28 20 7 10 17 16 16 17 7 31 -29 38 11 11 -16 42 9 15 43 30 6 7 15
4 12 10 10 11 11 16 -2 25 15 -5 -5 9 22 26 30 6 7 48 7 27 12 23 18 12 18 -18 26 9 26 -5 14 9 4 -0 30 5 -30 -10 -20 21 26 6 8 10
4 12 10 13 11 11 21 -15 35 15 11 -25 10 15 15 25 -1 7 40 29 22 18 17 16 15 22 19 13 7 41 38 -15 -22 1 20 52 20 28 8 38 21 5 27 3 6
4 13 10 12 20 11 31 -14 38 24 -10 -33 4 -0 12 23 -6 16 67 16 16 10 11 -10 26 8 25 17 18 9 9 33 25 10 -10 22 43 37 20 20 -25 -11 20 26 2
7 11 12 8 13 17 31 15 24 30 5 12 4 5 14 20 7 9 24 -32 13 25 -2 2 24 -1 7 11 16 14 29 6 9 19 15 38 -23 48 21 16 40 6 -13 16 27
6 9 12 7 12 17 48 23 -5 22 -26 -18 15 1 0 9 10 3 12 57 -7 -16 37 -20 39 -4 59 26 6 18 35 16 11 18 10 -4 -30 13 57 26 -8 39 6 1 9
7 3 9 4 12 19 10 24 -2 29 47 -23 -5 9 9 12 6 13 -11 8 23 42 -12 35 -41 34 35 34 13 10 1 11 8 7 3 26 5 -3 7 28 33 17 -2 37 1
11 -0 2 10 11 4 -3 29 20 11 -2 5 18 9 10 3 -1 2 -15 9 15 18 35 -2 -14 30 21 -10 54 10 11 20 7 9 16 -11 11 -12 23 30 16 15 17 2 11
12 1 7 21 10 11 43 1 16 22 -0 1 35 -0 4 6 18 11 47 1 14 14 37 5 -19 3 38 10 46 15 10 7 13 12 1 13 15 -15 -1 17 31 23 19 12 9
9 -2 8 12 -4 1 27 24 17 15 6 9 22 21 -1 17 5 21 20 -46 14 23 28 16 14 -20 -10 35 26 26 27 15 10 9 8 -2 2 4 24 23 13 35 42 3 2
6 12 3 -2 2 10 20 13 7 7 14 21 6 9 10 10 3 8 -3 -0 7 28 9 41 4 -1 13 -6 -0 53 19 19 10 12 11 7 -1 21 19 14 15 23 22 33 4
6 19 -8 12 15 13 7 16 4 4 13 4 5 7 10 8 -2 9 13 4 7 22 11 36 1 20 -1 -28 33 2 35 23 18 -4 12 17 -7 20 16 21 18 19 11 14 30
11 12 -6 8 11 10 2 4 13 1 3 9 9 9 18 0 21 6 19 5 7 9 21 8 -10 13 8 -10 -17 7 37 37 6 7 12 13 -9 21 20 12 18 18 30 22 6
15 9 21 10 6 9 18 9 9 17 5 17 -7 9 7 3 17 1 8 6 1 6 19 8 17 16 19 2 -8 2 10 51 17 10 -10 24 7 18 24 23 13 15 24 29 24
9 8 13 -11 5 4 10 10 8 21 10 10 -7 13 9 7 28 -0 11 18 9 7 5 17 -2 28 -5 20 -2 15 5 12 19 26 18 6 4 9 13 20 17 10 12 19 32
6 12 9 12 6 6 4 6 8 9 8 12 14 14 5 12 18 6 7 9 -8 4 7 2 21 29 -13 32 -1 -39 8 3 7 21 5 2 3 9 14 16 20 14 12 8 17
9 5 9 9 -2 9 4 3 6 5 5 12 8 12 4 16 17 12 10 7 8 -0 5 4 15 15 -7 25 18 -19 -2 8 4 7 9 1 8 9 13 15 20 20 17 11 12
Height
3103 3098 3093 3087 3081 3076 3071 3065 3059 3054 3049 3043 3038 3033 3027 3027 3026 3023 3022 3020 3018 3018 3015 3019 3020 3024 3029 3029 3034 3041 3036 3023 3032 3042 3049 3059 3066 3075 3081 3087 3093 3097 3101 3107 3112
3101 3096 3089 3083 3076 3071 3065 3058 3051 3045 3040 3034 3030 3024 3020 3016 3013 3010 3011 3008 3006 3003 3007 3009 3011 3015 3017 3019 3023 3025 3019 3013 3031 3037 3043 3053 3060 3069 3074 3078 3082 3089 3095 3102 3106
3100 3094 3087 3080 3073 3068 3061 3055 3047 3041 3034 3029 3024 3018 3013 3009 3005 3002 3001 2999 2996 2995 2999 3000 3003 3008 3007 3010 3013 3013 2999 3021 3027 3033 3040 3047 3053 3059 3064 3066 3072 3084 3092 3095 3099
3097 3091 3083 3075 3069 3063 3056 3049 3042 3034 3026 3020 3014 3010 3008 3006 3007 2998 2996 2994 2991 2992 2993 2994 2996 2998 2997 2999 3005 3005 3004 3015 3023 3029 3033 3038 3045 3046 3052 3059 3070 3079 3086 3089 3092
3096 3090 3082 3073 3065 3058 3052 3045 3037 3031 3025 3019 3014 3009 3005 3003 3000 2997 2995 2992 2988 2986 2986 2986 2988 2991 2989 2993 2997 2994 3000 3010 3015 3019 3024 3032 3033 3039 3040 3052 3063 3070 3075 3081 3087
3095 3087 3080 3071 3062 3054 3048 3041 3033 3029 3022 3017 3012 3007 3003 3002 2996 2993 2990 2989 2986 2983 2981 2979 2978 2981 2980 2982 2986 2987 2994 2998 3005 3012 3016 3022 3026 3031 3030 3043 3051 3060 3066 3074 3080
3092 3085 3078 3069 3059 3052 3046 3039 3032 3027 3023 3017 3011 3005 2999 2997 2991 2988 2984 2981 2980 2978 2975 2974 2971 2971 2973 2973 2981 2981 2984 2990 2994 3000 3006 3014 3014 3002 3024 3035 3044 3051 3059 3065 3073
3090 3083 3076 3067 3059 3051 3044 3038 3031 3027 3022 3017 3010 3003 2998 2995 2990 2984 2978 2974 2972 2970 2967 2968 2966 2965 2965 2969 2969 2974 2980 2979 2984 2993 2999 3004 2983 3014 3019 3028 3036 3044 3051 3058 3065
3088 3080 3073 3066 3058 3052 3044 3038 3031 3026 3021 3017 3006 2999 2996 2992 2986 2979 2972 2966 2961 2960 2959 2960 2960 2960 2962 2964 2965 2964 2966 2972 2979 2985 2995 2992 2994 3003 3012 3019 3028 3036 3043 3051 3058
3088 3080 3072 3064 3057 3051 3045 3036 3032 3026 3022 3011 3001 2998 2992 2986 2982 2976 2970 2961 2955 2952 2953 2954 2954 2954 2954 2958 2956 2959 2961 2965 2967 2977 2983 2984 2987 2997 3005 3012 3018 3028 3036 3043 3050
3090 3080 3070 3062 3055 3050 3044 3037 3032 3027 3020 3015 3013 3003 2993 2987 2983 2974 2962 2953 2948 2946 2945 2947 2949 2949 2950 2951 2950 2953 2955 2958 2962 2969 2976 2974 2986 2994 3002 3006 3011 3018 3028 3035 3043
3090 3081 3071 3062 3055 3048 3042 3037 3027 3026 3022 3019 3014 3004 2997 2986 2978 2969 2958 2951 2946 2944 2944 2946 2946 2946 2945 2945 2945 2944 2950 2953 2959 2964 2966 2973 2976 2989 2995 2997 3004 3011 3019 3028 3038
3088 3081 3072 3064 3057 3050 3042 3036 3025 3023 3022 3020 3011 3003 2993 2988 2980 2968 2958 2953 2948 2946 2944 2944 2946 2944 2942 2943 2943 2942 2944 2949 2956 2959 2959 2968 2976 2980 2984 2992 2999 3005 3013 3023 3031
3088 3079 3071 3064 3059 3049 3043 3036 3026 3022 3022 3020 3013 3007 2997 2990 2986 2974 2962 2958 2952 2949 2946 2947 2943 2941 2937 2939 2941 2940 2941 2947 2953 2959 2963 2962 2964 2969 2976 2981 2990 2999 3004 3012 3022
3091 3081 3071 3061 3057 3051 3043 3036 3031 3025 3027 3024 3016 3011 3003 2995 2987 2978 2967 2961 2956 2953 2952 2950 2943 2937 2934 2936 2936 2936 2937 2944 2950 2956 2959 2959 2965 2960 2970 2976 2979 2988 2999 3006 3013
3089 3083 3076 3070 3059 3051 3042 3036 3035 3027 3031 3028 3022 3010 3002 2996 2988 2981 2972 2965 2959 2956 2953 2949 2947 2941 2937 2933 2932 2931 2936 2942 2949 2953 2957 2958 2962 2959 2963 2969 2976 2984 2992 3001 3008
3090 3083 3074 3068 3060 3053 3044 3037 3034 3034 3041 3034 3021 3013 3006 2998 2989 2983 2973 2962 2961 2956 2953 2950 2949 2942 2938 2934 2934 2934 2936 2940 2946 2950 2952 2952 2959 2957 2959 2959 2964 2974 2986 2994 3002
3094 3088 3079 3070 3064 3056 3046 3039 3032 3043 3037 3032 3024 3018 3010 3001 2995 2988 2981 2972 2970 2966 2961 2957 2951 2947 2944 2943 2940 2937 2940 2940 2939 2943 2949 2952 2953 2955 2955 2957 2960 2967 2977 2987 2995
3096 3091 3082 3072 3065 3058 3051 3034 3047 3045 3042 3034 3025 3017 3013 3009 3002 2992 2987 2983 2978 2972 2970 2964 2962 2959 2950 2944 2941 2939 2940 2942 2942 2941 2946 2953 2951 2955 2956 2957 2958 2963 2973 2980 2989
3098 3092 3082 3072 3066 3061 3046 3042 3050 3047 3043 3038 3031 3025 3018 3011 3005 2999 2994 2990 2983 2980 2975 2972 2966 2963 2955 2948 2945 2941 2944 2943 2939 2941 2947 2953 2953 2952 2951 2956 2958 2962 2967 2975 2982
3098 3091 3083 3075 3070 3060 3047 3052 3051 3049 3045 3041 3034 3027 3024 3017 3012 3006 3002 2996 2989 2982 2977 2972 2972 2968 2960 2957 2956 2948 2947 2948 2951 2954 2954 2953 2959 2955 2953 2956 2957 2960 2964 2971 2978
3098 3092 3085 3078 3070 3057 3057 3057 3056 3053 3047 3043 3036 3029 3025 3020 3016 3011 3007 3002 2995 2987 2980 2976 2973 2969 2969 2968 2963 2960 2954 2951 2952 2953 2953 2956 2965 2960 2960 2958 2957 2959 2961 2967 2971
3098 3093 3085 3078 3069 3065 3063 3060 3057 3053 3049 3044 3039 3034 3029 3024 3019 3014 3011 3007 3000 2993 2985 2983 2980 2974 2971 2972 2969 2960 2958 2954 2955 2956 2961 2960 2970 2964 2958 2958 2960 2959 2960 2964 2970
3097 3092 3086 3079 3074 3070 3065 3061 3057 3053 3048 3044 3041 3036 3031 3025 3021 3017 3012 3009 3003 2997 2993 2988 2987 2986 2988 2987 2982 2973 2966 2960 2959 2962 2967 2969 2969 2964 2964 2965 2961 2960 2959 2962 2966
3098 3094 3089 3084 3077 3072 3068 3063 3059 3055 3051 3046 3040 3036 3031 3026 3021 3018 3015 3010 3006 3001 2996 2991 2989 2988 2988 2987 2985 2983 2977 2974 2970 2970 2971 2973 2969 2969 2965 2961 2959 2959 2961 2962 2964
3099 3095 3089 3084 3079 3074 3069 3065 3060 3056 3052 3048 3043 3038 3033 3028 3024 3018 3015 3012 3008 3004 2999 2995 2992 2989 2988 2986 2986 2985 2983 2980 2977 2977 2976 2974 2972 2969 2966 2962 2961 2963 2962 2964 2964
3100 3095 3090 3085 3080 3075 3071 3066 3061 3056 3053 3048 3043 3039 3035 3030 3025 3020 3017 3014 3012 3008 3002 2997 2994 2989 2988 2986 2985 2987 2984 2983 2982 2981 2979 2975 2975 2972 2969 2967 2966 2965 2964 2965 2965